Weather History for Homer, AK

Change the Weather History Date:

Saturday, January 26, 2013

  Actual Average Record
Temperature  
Mean Temperature 12 °F -  
Max Temperature 15 °F 29 °F 53 °F (2014)
Min Temperature 8 °F 17 °F -16 °F (1947)
Degree Days  
Heating Degree Days 54    
Moisture  
Dew Point -8 °F    
Average Humidity 42    
Maximum Humidity 54    
Minimum Humidity 32    
Precipitation  
Precipitation 0.00 in - - ()
Sea Level Pressure  
Sea Level Pressure 29.79 in    
Wind  
Wind Speed 7 mph (NE)    
Max Wind Speed 15 mph    
Max Gust Speed -    
Visibility 10 miles    
Events      
Averages and records for this station are not official NWS values.
T = Trace of Precipitation, MM = Missing Value Source: NWS Daily Summary

Daily Weather History Graph

Daily Weather History Graph

Search for Another Location

Airport:

Trip Planner

Search our weather history database for the weather conditions in past years. The results will help you decide how hot, cold, wet, or windy it might be!

Date:

Astronomy

Jan. 26, 2013 Rise Set
Actual Time 9:29 AM AKST 5:08 PM AKST
Civil Twilight 8:41 AM AKST 5:56 PM AKST
Nautical Twilight 7:50 AM AKST 6:47 PM AKST
Astronomical Twilight 7:02 AM AKST 7:36 PM AKST
Moon 5:28 PM AKST (1/26) 8:42 AM AKST (1/26)
Length of Visible Light 9h 14m
Length of Day
7h 38m
Full, 100% of the Moon is Illuminated
Jan 26
Full
Jan 26
Full
Feb 3
Last Quarter
Feb 9
New
Feb 17
First Quarter

Hourly Weather History & Observations

Time (AKST) Temp. Windchill Dew Point Humidity Pressure Visibility Wind Dir Wind Speed Gust Speed Precip Events Conditions
12:53 AM 15.1 °F 6.4 °F -4.0 °F 43% 29.66 in 10.0 mi NNE 5.8 mph - N/A   Clear
1:53 AM 14.0 °F - -0.9 °F 52% 29.68 in 10.0 mi Calm Calm - N/A   Clear
3:53 AM 14.0 °F 2.9 °F -7.1 °F 39% 29.69 in 10.0 mi North 8.1 mph - N/A   Clear
4:53 AM 10.9 °F 1.4 °F -2.9 °F 54% 29.70 in 10.0 mi NNE 5.8 mph - N/A   Clear
5:53 AM 12.9 °F 2.6 °F -7.1 °F 41% 29.70 in 10.0 mi ENE 6.9 mph - N/A   Clear
6:53 AM 12.0 °F -2.0 °F -8.0 °F 41% 29.72 in 10.0 mi ENE 11.5 mph - N/A   Clear
7:53 AM 10.9 °F -5.4 °F -7.1 °F 44% 29.73 in 10.0 mi ENE 15.0 mph - N/A   Clear
8:53 AM 10.0 °F 0.4 °F -7.1 °F 46% 29.76 in 10.0 mi ENE 5.8 mph - N/A   Clear
9:53 AM 10.9 °F -1.8 °F -9.0 °F 40% 29.77 in 10.0 mi ENE 9.2 mph - N/A   Clear
10:53 AM 12.0 °F -2.7 °F -9.9 °F 37% 29.78 in 9.0 mi NNE 12.7 mph - N/A   Clear
11:53 AM 14.0 °F 3.9 °F -11.0 °F 32% 29.79 in 10.0 mi NE 6.9 mph - N/A   Clear
12:53 PM 15.1 °F 7.7 °F -8.0 °F 36% 29.80 in 10.0 mi Variable 4.6 mph - N/A   Clear
1:53 PM 14.0 °F 1.2 °F -7.1 °F 39% 29.80 in 10.0 mi NE 10.4 mph - N/A   Clear
2:53 PM 15.1 °F 5.2 °F -7.1 °F 37% 29.81 in 10.0 mi ENE 6.9 mph - N/A   Clear
3:53 PM 15.1 °F 9.4 °F -9.0 °F 34% 29.82 in 10.0 mi NE 3.5 mph - N/A   Clear
4:53 PM 12.0 °F 1.5 °F -8.0 °F 41% 29.82 in 10.0 mi ENE 6.9 mph - N/A   Clear
5:53 PM 12.0 °F -0.4 °F -11.0 °F 35% 29.84 in 10.0 mi NNE 9.2 mph - N/A   Clear
6:53 PM 10.0 °F - -9.0 °F 42% 29.85 in 10.0 mi Calm Calm - N/A   Clear
7:53 PM 10.0 °F 1.8 °F -9.9 °F 40% 29.87 in 10.0 mi North 4.6 mph - N/A   Clear
8:53 PM 9.0 °F 2.4 °F -9.9 °F 42% 29.88 in 10.0 mi NE 3.5 mph - N/A   Clear
9:53 PM 8.1 °F -3.2 °F -8.0 °F 48% 29.88 in 10.0 mi NNE 6.9 mph - N/A   Partly Cloudy
10:53 PM 9.0 °F -2.2 °F -7.1 °F 48% 29.89 in 10.0 mi NE 6.9 mph - N/A   Mostly Cloudy
11:53 PM 10.0 °F -0.9 °F -5.1 °F 51% 29.90 in 10.0 mi ENE 6.9 mph - N/A   Overcast